Weather in Yangier

Uzbekistan     37°45′03″N   67°35′04″E
temp.,
°C
wind,
m/s
gust,
m/s
humid.,
%
clouds,
%
prec.,
mm/h
press.,
hPa
HPBL,
m
23 april, fri
fri2323:00+18sw33170 0.0 102119
02:00+16e22180 0.0 102011
05:00+15ne46400 0.0 102183
08:00+18ne56315 0.0 1021277
11:00+24e2319100 0.0 10201683
14:00+27e23145 0.0 10182326
17:00+27ene12130 0.0 10152150
20:00+22sse35180 0.0 101660
24 april, sat
sat2423:00+19ene11225 0.0 101611
02:00+18ne34325 0.0 101648
05:00+16ne453685 0.0 101762
08:00+20ne44255 0.0 1018218
11:00+26ese001695 0.0 10171227
14:00+28ssw2112100 0.0 10162190
17:00+29ssw211198 0.0 10152122
20:00+24ssw3315100 0.0 101614
25 april, sun
sun2523:00+21e11188 0.0 101711
02:00+20ne4424100 0.0 101641
05:00+18ne4528100 0.0 101658
08:00+22ne45255 0.0 1017242
11:00+28e111474 0.0 10161161
14:00+31s0111100 0.0 10141958
17:00+32s11115 0.0 10121984
20:00+27sw33165 0.0 101314
26 april, mon
mon2623:00+24ene2219100 0.0 101413
02:00+22nne342394 0.0 101330
05:00+20ne4428100 0.0 101344
08:00+24ne3425100 0.0 1014183
11:00+30sse001697 0.0 1013987
14:00+31w211446 0.0 10111546
17:00+32sse11113 0.0 10101785
20:00+27ssw22164 0.0 101011
27 april, tue
tue2723:00+24ssw11191 0.0 101111
02:00+23nne33200 0.0 101027
05:00+20ne44290 0.0 101040
08:00+25ne45230 0.0 1011206
11:00+31ene11150 0.0 10101029
14:00+34ssw11100 0.0 10082125
17:00+35sw2190 0.0 10072313
20:00+30sw44130 0.0 100828